AFL1334 UUEE-ULAA

Flight info

Callsign AFL1334
Flight time 1h 26m
Altitude 36000
Route K0823F360 RILPO3J RILPO T753 DEGOP T747 TIPNA P988 GITOT/K0826F350 P988 RUPAD T825 ABELU ABELU3M
Aircraft A320/M-SDIE2E3FGHJ1RWY/LB1U1

Departure

Time 2026-05-04 06:30
Airport Sheremetyevo International Airport (UUEE)

Arrival

Time 2026-05-04 07:56
Airport Talagi Airport (ULAA)
Time Latitude Longitude Altitude Speed Heading
2026-05-04 06:11 55.97796 37.41814 639 ft 0 kts 345°
2026-05-04 06:25 55.97721 37.41826 639 ft 0 kts 75°
2026-05-04 06:26 55.97721 37.41829 639 ft 2 kts 75°
2026-05-04 06:26 55.97729 37.41880 639 ft 5 kts 75°
2026-05-04 06:26 55.97737 37.41937 644 ft 5 kts 75°
2026-05-04 06:26 55.97748 37.42009 643 ft 7 kts 75°
2026-05-04 06:27 55.97854 37.42480 640 ft 11 kts 75°
2026-05-04 06:28 55.97874 37.42620 642 ft 12 kts 75°
2026-05-04 06:28 55.97851 37.42738 642 ft 10 kts 153°
2026-05-04 06:28 55.97788 37.42768 642 ft 8 kts 165°
2026-05-04 06:28 55.97737 37.42793 639 ft 7 kts 165°
2026-05-04 06:29 55.97696 37.42812 640 ft 6 kts 165°
2026-05-04 06:29 55.97650 37.42834 641 ft 9 kts 165°
2026-05-04 06:29 55.97602 37.42801 646 ft 7 kts 236°
2026-05-04 06:29 55.97591 37.42745 640 ft 4 kts 255°
2026-05-04 06:30 55.97544 37.42429 643 ft 63 kts 255°
2026-05-04 06:30 55.97371 37.41270 641 ft 127 kts 255°
2026-05-04 06:30 55.97097 37.39447 803 ft 163 kts 255°
2026-05-04 06:30 55.96800 37.37523 1493 ft 163 kts 255°
2026-05-04 06:31 55.96493 37.35591 2193 ft 161 kts 256°
2026-05-04 06:31 55.96189 37.33675 2822 ft 160 kts 256°
2026-05-04 06:31 55.95886 37.31761 3467 ft 160 kts 258°
2026-05-04 06:31 55.95583 37.29845 4020 ft 165 kts 257°
2026-05-04 06:32 55.95255 37.27741 4258 ft 188 kts 257°
2026-05-04 06:33 55.92024 37.07295 8503 ft 270 kts 257°
2026-05-04 06:34 55.91744 37.04002 9311 ft 270 kts 275°
2026-05-04 06:34 55.92156 37.00761 10102 ft 270 kts 295°
2026-05-04 06:34 55.92798 36.98858 10586 ft 272 kts 309°
2026-05-04 06:34 55.94224 36.96628 11342 ft 276 kts 323°
2026-05-04 06:35 55.96346 36.94028 12377 ft 279 kts 323°
2026-05-04 06:36 56.10790 36.94016 15379 ft 362 kts
2026-05-04 06:37 56.13274 36.94858 15976 ft 365 kts
2026-05-04 06:37 56.15784 36.95701 16576 ft 368 kts
2026-05-04 06:37 56.18309 36.96545 17167 ft 371 kts
2026-05-04 06:37 56.20862 36.97397 17749 ft 375 kts
2026-05-04 06:38 56.23438 36.98260 18310 ft 378 kts
2026-05-04 06:38 56.26030 36.99127 18823 ft 381 kts
2026-05-04 06:40 56.44632 37.05412 22227 ft 398 kts
2026-05-04 06:40 56.47360 37.06334 22659 ft 401 kts
2026-05-04 06:40 56.50111 37.07267 23103 ft 403 kts
2026-05-04 06:40 56.52877 37.08210 23535 ft 406 kts
2026-05-04 06:41 56.55657 37.09159 23922 ft 408 kts
2026-05-04 06:41 56.58452 37.10114 24320 ft 409 kts
2026-05-04 06:41 56.61254 37.11074 24704 ft 411 kts
2026-05-04 06:41 56.64031 37.12024 25060 ft 412 kts
2026-05-04 06:42 56.66895 37.13000 25433 ft 414 kts
2026-05-04 06:42 56.69733 37.13970 25791 ft 416 kts
2026-05-04 06:42 56.72580 37.14946 26141 ft 417 kts
2026-05-04 06:44 56.92795 37.21962 28551 ft 428 kts
2026-05-04 06:44 56.95727 37.22984 28854 ft 430 kts
2026-05-04 06:44 56.98662 37.24014 29151 ft 432 kts
2026-05-04 06:45 57.01617 37.25052 29446 ft 433 kts
2026-05-04 06:45 57.04582 37.26095 29728 ft 435 kts
2026-05-04 06:45 57.07560 37.27137 30002 ft 436 kts
2026-05-04 06:45 57.10548 37.28181 30243 ft 437 kts
2026-05-04 06:46 57.13529 37.29232 30597 ft 436 kts
2026-05-04 06:46 57.16505 37.30288 30965 ft 435 kts
2026-05-04 06:46 57.19464 37.31338 31353 ft 432 kts
2026-05-04 06:46 57.22408 37.32380 31727 ft 430 kts
2026-05-04 06:48 57.42804 37.39621 34028 ft 423 kts
2026-05-04 06:48 57.45691 37.40650 34275 ft 424 kts
2026-05-04 06:49 57.48592 37.41689 34525 ft 424 kts
2026-05-04 06:50 57.68911 37.49024 34884 ft 426 kts
2026-05-04 06:51 57.74724 37.51133 34884 ft 426 kts
2026-05-04 06:51 57.80544 37.53273 34907 ft 426 kts
2026-05-04 06:52 57.86361 37.55416 34902 ft 426 kts
2026-05-04 06:52 57.92180 37.57563 34894 ft 426 kts
2026-05-04 06:53 57.97991 37.59698 34889 ft 426 kts
2026-05-04 06:53 58.03805 37.61847 34886 ft 425 kts
2026-05-04 06:54 58.09605 37.63999 34914 ft 425 kts
2026-05-04 06:54 58.15401 37.66149 34921 ft 425 kts
2026-05-04 06:55 58.21200 37.68303 34907 ft 425 kts
2026-05-04 06:55 58.27003 37.70478 34897 ft 424 kts
2026-05-04 06:57 58.50173 37.79241 34900 ft 424 kts
2026-05-04 06:58 58.55964 37.81446 34892 ft 424 kts
2026-05-04 06:58 58.61751 37.83672 34891 ft 424 kts
2026-05-04 06:59 58.67533 37.85899 34889 ft 424 kts
2026-05-04 06:59 58.73290 37.88114 34924 ft 425 kts
2026-05-04 07:01 58.96506 37.97125 34886 ft 426 kts
2026-05-04 07:02 59.02316 37.99399 34887 ft 426 kts
2026-05-04 07:02 59.08129 38.01681 34870 ft 426 kts
2026-05-04 07:03 59.13936 38.03978 34864 ft 426 kts
2026-05-04 07:03 59.19742 38.06280 34862 ft 426 kts
2026-05-04 07:04 59.25552 38.08571 34862 ft 426 kts
2026-05-04 07:04 59.31359 38.10886 34863 ft 426 kts
2026-05-04 07:05 59.37169 38.13214 34895 ft 426 kts
2026-05-04 07:05 59.42974 38.15541 34894 ft 426 kts
2026-05-04 07:06 59.51667 38.19048 34890 ft 425 kts
2026-05-04 07:07 59.57463 38.21410 34887 ft 425 kts
2026-05-04 07:09 59.80665 38.30884 34882 ft 426 kts
2026-05-04 07:09 59.86469 38.33266 34880 ft 426 kts
2026-05-04 07:10 59.92281 38.35669 34875 ft 427 kts
2026-05-04 07:12 60.15576 38.45400 34864 ft 430 kts
2026-05-04 07:12 60.21439 38.47859 34866 ft 431 kts
2026-05-04 07:13 60.27309 38.50340 34859 ft 431 kts
2026-05-04 07:13 60.33185 38.52836 34866 ft 432 kts
2026-05-04 07:14 60.47754 38.59041 34867 ft 435 kts
2026-05-04 07:15 60.53688 38.61598 34862 ft 436 kts
2026-05-04 07:15 60.59631 38.64162 34863 ft 437 kts
2026-05-04 07:16 60.65580 38.66732 34871 ft 438 kts
2026-05-04 07:16 60.71545 38.69331 34861 ft 439 kts
2026-05-04 07:17 60.77515 38.71943 34859 ft 439 kts
2026-05-04 07:17 60.83495 38.74565 34855 ft 439 kts
2026-05-04 07:18 60.89473 38.77180 34859 ft 440 kts
2026-05-04 07:18 60.95457 38.79808 34880 ft 440 kts
2026-05-04 07:19 61.01449 38.82468 34865 ft 441 kts
2026-05-04 07:19 61.07440 38.85136 34865 ft 441 kts
2026-05-04 07:20 61.13444 38.87822 34857 ft 442 kts
2026-05-04 07:20 61.19453 38.90530 34852 ft 442 kts
2026-05-04 07:22 61.43513 39.01391 34854 ft 444 kts
2026-05-04 07:23 61.49542 39.04144 34851 ft 444 kts
2026-05-04 07:23 61.54562 39.06454 34856 ft 444 kts
2026-05-04 07:24 61.60603 39.09237 34888 ft 445 kts
2026-05-04 07:24 61.66642 39.12033 34869 ft 445 kts
2026-05-04 07:26 61.90847 39.23323 34865 ft 445 kts
2026-05-04 07:27 61.96908 39.26077 34881 ft 445 kts
2026-05-04 07:27 62.02967 39.28800 34869 ft 445 kts
2026-05-04 07:28 62.09027 39.31550 34858 ft 445 kts
2026-05-04 07:28 62.15002 39.34299 34856 ft 446 kts
2026-05-04 07:29 62.21067 39.37085 34857 ft 446 kts
2026-05-04 07:29 62.27137 39.39876 34856 ft 446 kts
2026-05-04 07:30 62.33201 39.42682 34871 ft 446 kts
2026-05-04 07:30 62.39263 39.45502 34865 ft 446 kts
2026-05-04 07:31 62.45325 39.48323 34849 ft 446 kts
2026-05-04 07:33 62.69542 39.59746 34853 ft 447 kts
2026-05-04 07:33 62.75619 39.62624 34850 ft 447 kts
2026-05-04 07:34 62.81698 39.65528 34847 ft 447 kts
2026-05-04 07:34 62.87772 39.68464 34846 ft 447 kts
2026-05-04 07:35 62.93852 39.71408 34877 ft 447 kts
2026-05-04 07:35 62.99932 39.74340 34861 ft 448 kts
2026-05-04 07:36 63.06017 39.77300 34846 ft 448 kts
2026-05-04 07:38 63.27356 39.87784 33473 ft 451 kts
2026-05-04 07:38 63.30424 39.89310 32641 ft 451 kts
2026-05-04 07:38 63.33489 39.90831 31842 ft 451 kts
2026-05-04 07:38 63.36551 39.92349 31064 ft 450 kts
2026-05-04 07:39 63.39609 39.93865 30306 ft 449 kts
2026-05-04 07:39 63.42652 39.95385 29493 ft 448 kts
2026-05-04 07:39 63.45672 39.97117 28636 ft 451 kts 11°
2026-05-04 07:39 63.48640 39.99360 27803 ft 449 kts 11°
2026-05-04 07:40 63.51595 40.01610 26975 ft 447 kts 11°
2026-05-04 07:40 63.54535 40.03848 26105 ft 446 kts 11°
2026-05-04 07:40 63.57479 40.06083 25288 ft 446 kts 11°
2026-05-04 07:40 63.60419 40.08319 24469 ft 447 kts 10°
2026-05-04 07:41 63.63366 40.10572 23625 ft 447 kts 11°
2026-05-04 07:41 63.66313 40.12837 22677 ft 448 kts 11°
2026-05-04 07:41 63.69258 40.15105 21723 ft 448 kts 11°
2026-05-04 07:41 63.72208 40.17381 20815 ft 448 kts 12°
2026-05-04 07:42 63.75063 40.20375 19997 ft 455 kts 22°
2026-05-04 07:42 63.77827 40.23834 19205 ft 454 kts 22°
2026-05-04 07:42 63.80576 40.27284 18548 ft 449 kts 22°
2026-05-04 07:42 63.83277 40.30692 18059 ft 440 kts 22°
2026-05-04 07:43 63.85926 40.34047 17573 ft 431 kts 22°
2026-05-04 07:43 63.88491 40.37307 17426 ft 414 kts 22°
2026-05-04 07:43 63.90966 40.40457 17085 ft 400 kts 21°
2026-05-04 07:43 63.93369 40.43508 16122 ft 393 kts 22°
2026-05-04 07:44 63.95730 40.46495 15510 ft 380 kts 22°
2026-05-04 07:44 63.97984 40.49365 15051 ft 364 kts 22°
2026-05-04 07:44 64.00146 40.52128 14596 ft 350 kts 22°
2026-05-04 07:44 64.02252 40.54811 14157 ft 347 kts 22°
2026-05-04 07:45 64.04362 40.57484 13705 ft 347 kts 22°
2026-05-04 07:45 64.06478 40.60171 13212 ft 348 kts 22°
2026-05-04 07:45 64.08587 40.62865 12756 ft 346 kts 23°
2026-05-04 07:45 64.10684 40.65566 12280 ft 345 kts 23°
2026-05-04 07:46 64.12770 40.68262 11824 ft 344 kts 24°
2026-05-04 07:46 64.14819 40.70910 11363 ft 342 kts 24°
2026-05-04 07:46 64.16883 40.73576 10899 ft 340 kts 24°
2026-05-04 07:46 64.18967 40.76270 10430 ft 339 kts 24°
2026-05-04 07:47 64.21004 40.78907 10196 ft 330 kts 24°
2026-05-04 07:47 64.22967 40.81464 10074 ft 318 kts 25°
2026-05-04 07:47 64.24835 40.83901 9942 ft 307 kts 24°
2026-05-04 07:49 64.37220 41.00091 6919 ft 279 kts 27°
2026-05-04 07:49 64.38900 41.02307 6322 ft 275 kts 27°
2026-05-04 07:49 64.40551 41.04489 5806 ft 272 kts 27°
2026-05-04 07:50 64.42199 41.06671 5346 ft 273 kts 27°
2026-05-04 07:50 64.43831 41.08835 4986 ft 269 kts 27°
2026-05-04 07:50 64.45467 41.10999 4528 ft 269 kts 27°
2026-05-04 07:50 64.47085 41.13080 4183 ft 263 kts 21°
2026-05-04 07:51 64.48767 41.14298 4123 ft 244 kts
2026-05-04 07:51 64.50404 41.14763 4036 ft 231 kts
2026-05-04 07:51 64.51973 41.15203 3932 ft 223 kts
2026-05-04 07:51 64.53511 41.15640 3828 ft 223 kts
2026-05-04 07:52 64.55046 41.16079 3729 ft 223 kts
2026-05-04 07:52 64.56538 41.16051 3629 ft 217 kts 338°
2026-05-04 07:52 64.57677 41.14061 3482 ft 203 kts 299°
2026-05-04 07:52 64.58056 41.10983 3256 ft 198 kts 276°
2026-05-04 07:53 64.58211 41.07788 2993 ft 200 kts 275°
2026-05-04 07:54 64.59286 40.86565 1176 ft 159 kts 275°
2026-05-04 07:55 64.59411 40.84082 942 ft 146 kts 276°
2026-05-04 07:55 64.59524 40.81811 738 ft 138 kts 276°
2026-05-04 07:55 64.59634 40.79601 557 ft 137 kts 276°
2026-05-04 07:55 64.59743 40.77431 374 ft 136 kts 276°
2026-05-04 07:56 64.59854 40.75244 173 ft 136 kts 276°
2026-05-04 07:56 64.59955 40.73096 40 ft 124 kts 278°
2026-05-04 07:56 64.60037 40.71482 38 ft 76 kts 276°
2026-05-04 07:56 64.60079 40.70660 37 ft 27 kts 276°
2026-05-04 07:57 64.60095 40.70285 36 ft 11 kts 268°
2026-05-04 07:57 64.60037 40.70208 38 ft 8 kts 187°
2026-05-04 07:57 64.59998 40.70197 40 ft 5 kts 187°
2026-05-04 07:57 64.59955 40.70185 40 ft 8 kts 187°
2026-05-04 07:58 64.59894 40.70201 40 ft 9 kts 137°
2026-05-04 07:58 64.59880 40.70336 40 ft 8 kts 96°
2026-05-04 07:58 64.59874 40.70456 40 ft 7 kts 97°
2026-05-04 07:58 64.59870 40.70560 40 ft 6 kts 96°
2026-05-04 07:59 64.59866 40.70648 40 ft 5 kts 96°
2026-05-04 07:59 64.59861 40.70737 40 ft 9 kts 96°
2026-05-04 07:59 64.59852 40.70930 39 ft 14 kts 96°
2026-05-04 07:59 64.59840 40.71172 40 ft 13 kts 96°
2026-05-04 08:00 64.59802 40.71276 40 ft 8 kts 172°
2026-05-04 08:00 64.59748 40.71267 40 ft 7 kts 176°
2026-05-04 08:00 64.59724 40.71338 40 ft 5 kts 105°
2026-05-04 08:02 64.59664 40.71388 40 ft 0 kts 186°